(261162) = 2005 TY100

Discovered at Kitt Peak on 2005-10-07 by Spacewatch.

Orbit

Orbit type: Main Belt

Note: WebGL enabled browser required.

epoch2024-03-31.0
epoch JD2460400.5
perihelion date2019-11-23.92523
perihelion JD2458811.42523
argument of perihelion (°)222.76742
ascending node (°)183.28872
inclination (°)5.00549
eccentricity0.0674954
perihelion distance (AU)2.5847508
Tisserand w.r.t. Jupiter3.3
ΔV w.r.t. Earth (km/sec)10.2
semimajor axis (AU)2.7718369
mean anomaly (°)339.38814
mean daily motion (°/day)0.21357590
aphelion distance (AU)2.959
period (years)4.61
P-vector [x]0.69410173
P-vector [y]0.68180016
P-vector [z]0.23102236
Q-vector [x]-0.71985953
Q-vector [y]0.65960379
Q-vector [z]0.21615988
absolute magnitude16.32
phase slope0.15
uncertainty0
referenceMPEC 2024-E50
observations used375
oppositions16
arc length (days)8444
first opposition used2000
last opposition used2023
residual rms (arc-secs)0.77
perturbers coarse indicatorM-v
perturbers precise indicator003Ek
first observation date used2000-08-26.0
last observation date used2023-10-09.0
computer nameMPCLINUX
JD of orbit computation2456966.869424
perihelion JD uncertainty (days)1.6905E-04
argument of perihelion uncertainty (°)4.6719E-05
ascending node uncertainty (°)2.9766E-05
inclination uncertainty (°)6.1808E-06
eccentricity uncertainty 4.9675E-08
perihelion distance uncertainty (AU)1.4248E-07
Minimum Orbit Intersection Distances (in AU)
for orbit epoch: 2460400.5, reference: E2024-E50
Mercury2.26255
Venus1.86201
Earth1.5963
Mars1.08218
Jupiter2.31081
Saturn6.40095
Uranus15.5676
Neptune27.2307

Observations

383 total observations over interval: 2000 08 26.20515 – 2023 10 09.263363
These data are available for download (format description).

Date (UT) J2000 RA J2000 Dec Magn Location Ref
2000 08 26.20515 22 45 23.82 -04 11 49.7 19.2 R 807 – Cerro Tololo Observatory, La Serena MPS 210144
2000 08 26.26105 22 45 21.19 -04 12 10.5   807 – Cerro Tololo Observatory, La Serena MPS 210144
2003 04 04.29040 12 44 53.01 -03 31 48.0 20.7 V 691 – Steward Observatory, Kitt Peak-Spacewatch MPS 175735
2003 04 04.32085 12 44 51.55 -03 31 36.2 20.7 V 691 – Steward Observatory, Kitt Peak-Spacewatch MPS 175735
2003 04 04.34797 12 44 50.23 -03 31 25.3 20.5 V 691 – Steward Observatory, Kitt Peak-Spacewatch MPS 175735
2003 04 25.14772 12 30 13.38 -01 28 15.0 20.9 V 691 – Steward Observatory, Kitt Peak-Spacewatch MPS 175735
2003 04 25.17445 12 30 12.43 -01 28 07.3 21.1 V 691 – Steward Observatory, Kitt Peak-Spacewatch MPS 175735
2003 04 25.20161 12 30 11.45 -01 27 59.0 21.1 V 691 – Steward Observatory, Kitt Peak-Spacewatch MPS 175735
2005 10 05.25345 01 39 03.75 +07 45 51.0 19.2   704 – Lincoln Laboratory ETS, New Mexico MPS 156038
2005 10 05.26445 01 39 03.28 +07 45 47.6 19.6   704 – Lincoln Laboratory ETS, New Mexico MPS 156038
2005 10 05.27543 01 39 02.81 +07 45 42.0 19.6   704 – Lincoln Laboratory ETS, New Mexico MPS 156038
2005 10 05.29743 01 39 01.75 +07 45 33.6 19.3   704 – Lincoln Laboratory ETS, New Mexico MPS 156038
2005 10 07.27573 01 37 34.29 +07 32 30.2 20.2 V 691 – Steward Observatory, Kitt Peak-Spacewatch MPS 147702
2005 10 07.29312 01 37 33.46 +07 32 23.3 20.2 V 691 – Steward Observatory, Kitt Peak-Spacewatch MPS 147702
2005 10 07.31050 01 37 32.66 +07 32 16.1 20.2 V 691 – Steward Observatory, Kitt Peak-Spacewatch MPS 147702
2005 10 10.31488 01 35 15.44 +07 12 07.4 20.2 V 691 – Steward Observatory, Kitt Peak-Spacewatch MPS 147702
2005 10 10.33507 01 35 14.42 +07 11 59.8 21.2 V 691 – Steward Observatory, Kitt Peak-Spacewatch MPS 147702
2005 10 10.35239 01 35 13.64 +07 11 52.3 20.2 V 691 – Steward Observatory, Kitt Peak-Spacewatch MPS 147702
2005 10 11.27654 01 34 30.76 +07 05 37.6 20.0 V 691 – Steward Observatory, Kitt Peak-Spacewatch MPS 156038
2005 10 11.29389 01 34 29.93 +07 05 30.5 20.0 V 691 – Steward Observatory, Kitt Peak-Spacewatch MPS 156038
2005 10 11.31124 01 34 29.08 +07 05 23.7 20.0 V 691 – Steward Observatory, Kitt Peak-Spacewatch MPS 156038
2005 10 12.376687 01 33 38.948 +06 58 10.02 19.63 V 645 – Apache Point-Sloan Digital Sky Survey MPS 390462
2005 10 12.380159 01 33 38.780 +06 58 08.61 20.37   645 – Apache Point-Sloan Digital Sky Survey MPS 390462
2005 10 24.15545 01 24 22.50 +05 39 42.6 19.4 R 699 – Lowell Observatory-LONEOS MPS 147702
2005 10 24.17733 01 24 21.44 +05 39 35.9   699 – Lowell Observatory-LONEOS MPS 147702
2005 10 24.19925 01 24 20.44 +05 39 27.2   699 – Lowell Observatory-LONEOS MPS 147702
2005 10 24.22120 01 24 19.35 +05 39 17.9   699 – Lowell Observatory-LONEOS MPS 147702
2005 10 26.12301 01 22 52.82 +05 27 20.4 20.2 V 691 – Steward Observatory, Kitt Peak-Spacewatch MPS 147702
2005 10 26.13834 01 22 52.12 +05 27 14.9 20.1 V 691 – Steward Observatory, Kitt Peak-Spacewatch MPS 147702
2005 10 26.15381 01 22 51.39 +05 27 08.8 19.6 V 691 – Steward Observatory, Kitt Peak-Spacewatch MPS 147702
2007 02 10.32612 09 01 19.30 +11 04 35.7 20.1 V G96 – Mt. Lemmon Survey MPS 199495
2007 02 10.33398 09 01 18.87 +11 04 38.3 20.2 V G96 – Mt. Lemmon Survey MPS 199495
2007 02 10.34178 09 01 18.40 +11 04 41.0 19.7 V G96 – Mt. Lemmon Survey MPS 199495
2007 02 10.34958 09 01 18.12 +11 04 42.8 19.6 V G96 – Mt. Lemmon Survey MPS 199495
2008 04 07.39961 15 15 35.64 -13 42 00.5 21.3 V 691 – Steward Observatory, Kitt Peak-Spacewatch MPS 245768
2008 04 07.41724 15 15 35.08 -13 41 56.0 21.3 V 691 – Steward Observatory, Kitt Peak-Spacewatch MPS 245768
2008 04 07.43486 15 15 34.51 -13 41 51.7 21.0 V 691 – Steward Observatory, Kitt Peak-Spacewatch MPS 245768
2008 05 14.25608 14 48 21.56 -10 48 14.1 20.0 V G96 – Mt. Lemmon Survey MPS 249819
2008 05 14.26218 14 48 21.27 -10 48 12.6 20.5 V G96 – Mt. Lemmon Survey MPS 249819
2008 05 14.26829 14 48 20.98 -10 48 10.8 19.9 V G96 – Mt. Lemmon Survey MPS 249819
2008 05 14.27441 14 48 20.70 -10 48 09.5 20.2 V G96 – Mt. Lemmon Survey MPS 249819
2008 06 11.19372 14 31 22.82 -09 24 56.3 21.0 V 691 – Steward Observatory, Kitt Peak-Spacewatch MPS 251387
2008 06 11.21586 14 31 22.34 -09 24 54.8 21.0 V 691 – Steward Observatory, Kitt Peak-Spacewatch MPS 251387
2008 06 11.23800 14 31 21.82 -09 24 52.9 21.3 V 691 – Steward Observatory, Kitt Peak-Spacewatch MPS 251387
2009 08 17.86738 20 58 36.60 -11 18 14.0 19.5 V J75 – OAM Observatory, La Sagra MPS 291750
2009 08 17.88015 20 58 36.02 -11 18 19.4 19.6 V J75 – OAM Observatory, La Sagra MPS 291750
2009 08 17.89300 20 58 35.35 -11 18 23.7 19.8 V J75 – OAM Observatory, La Sagra MPS 291750
2010 11 08.40542 04 51 15.30 +15 45 59.8 19.8 V G96 – Mt. Lemmon Survey MPS 355351
2010 11 08.43655 04 51 14.04 +15 45 53.4 19.9 V G96 – Mt. Lemmon Survey MPS 355351
2010 11 08.44536 04 51 13.68 +15 45 51.6 19.7 V G96 – Mt. Lemmon Survey MPS 355351
2010 11 08.45419 04 51 13.32 +15 45 49.3 19.6 V G96 – Mt. Lemmon Survey MPS 355351
2010 11 08.538839 04 51 10.097 +15 45 32.80 20.60 g F51 – Pan-STARRS 1, Haleakala MPS 365548
2010 11 08.550768 04 51 09.608 +15 45 30.28 20.59 g F51 – Pan-STARRS 1, Haleakala MPS 365548
2010 12 03.27305 04 30 26.43 +14 25 36.9 19.1   704 – Lincoln Laboratory ETS, New Mexico MPS 358902
2010 12 03.28632 04 30 25.63 +14 25 31.8 20.0   704 – Lincoln Laboratory ETS, New Mexico MPS 358902
2010 12 03.29960 04 30 24.95 +14 25 32.8 19.8   704 – Lincoln Laboratory ETS, New Mexico MPS 358902
2010 12 03.31286 04 30 24.13 +14 25 29.8 19.6   704 – Lincoln Laboratory ETS, New Mexico MPS 358902
2010 12 03.32672 04 30 23.36 +14 25 27.4 19.6   704 – Lincoln Laboratory ETS, New Mexico MPS 358902
2012 02 16.57644 11 43 50.872 -00 31 58.49 20.3 i F51 – Pan-STARRS 1, Haleakala MPS 414064
2012 02 16.58707 11 43 50.496 -00 31 55.47 20.4 i F51 – Pan-STARRS 1, Haleakala MPS 414064
2012 02 24.54251 11 38 56.124 +00 09 35.71 20.0 r F51 – Pan-STARRS 1, Haleakala MPS 416011
2012 02 24.55242 11 38 55.710 +00 09 39.12 20.1 r F51 – Pan-STARRS 1, Haleakala MPS 416011
2012 02 24.56275 11 38 55.257 +00 09 42.72 20.4 g F51 – Pan-STARRS 1, Haleakala MPS 416011
2012 02 24.57292 11 38 54.831 +00 09 46.20 20.5 g F51 – Pan-STARRS 1, Haleakala MPS 416011
2012 03 01.38153 11 34 46.30 +00 44 39.8 19.7 V G96 – Mt. Lemmon Survey MPS 416011
2012 03 01.38970 11 34 45.91 +00 44 43.1 20.3 V G96 – Mt. Lemmon Survey MPS 416011
2012 03 01.39782 11 34 45.51 +00 44 46.1 20.0 V G96 – Mt. Lemmon Survey MPS 416011
2012 03 01.40600 11 34 45.15 +00 44 49.5 20.1 V G96 – Mt. Lemmon Survey MPS 416011
2012 03 03.23851 11 33 22.75 +00 56 26.3 20.5 V 691 – Steward Observatory, Kitt Peak-Spacewatch MPS 416011
2012 03 03.25785 11 33 21.90 +00 56 34.1 20.6 V 691 – Steward Observatory, Kitt Peak-Spacewatch MPS 416011
2012 03 03.27720 11 33 20.93 +00 56 41.1 20.9 V 691 – Steward Observatory, Kitt Peak-Spacewatch MPS 416011
2012 03 14.34138 11 24 42.48 +02 10 13.5 20.4 V G96 – Mt. Lemmon Survey MPS 417109
2012 03 14.34897 11 24 42.15 +02 10 17.2 20.5 V G96 – Mt. Lemmon Survey MPS 417109
2012 03 14.35675 11 24 41.76 +02 10 20.0 20.6 V G96 – Mt. Lemmon Survey MPS 417109
2012 03 14.36429 11 24 41.36 +02 10 23.1 20.4 V G96 – Mt. Lemmon Survey MPS 417109
2012 03 20.37811 11 20 02.991 +02 50 40.42 20.8 w F51 – Pan-STARRS 1, Haleakala MPS 418329
2012 03 20.39276 11 20 02.303 +02 50 46.20 20.7 w F51 – Pan-STARRS 1, Haleakala MPS 418329
2012 03 20.40738 11 20 01.614 +02 50 51.97 20.7 w F51 – Pan-STARRS 1, Haleakala MPS 418329
2012 04 12.29558 11 06 20.881 +04 58 57.34 21.3 g F51 – Pan-STARRS 1, Haleakala MPS 421748
2012 04 12.30760 11 06 20.594 +04 59 00.40 21.3 g F51 – Pan-STARRS 1, Haleakala MPS 421748
2012 04 21.23194 11 03 41.58 +05 30 51.5 20.4 V G96 – Mt. Lemmon Survey MPS 422731
2012 04 21.23947 11 03 41.50 +05 30 53.0 21.0 V G96 – Mt. Lemmon Survey MPS 422731
2012 04 21.24697 11 03 41.36 +05 30 54.5 20.8 V G96 – Mt. Lemmon Survey MPS 422731
2012 04 21.25446 11 03 41.29 +05 30 55.4 20.8 V G96 – Mt. Lemmon Survey MPS 422731
2013 07 01.32353 16 52 14.282 -15 11 52.71 20.5 w F51 – Pan-STARRS 1, Haleakala MPS 471727
2013 07 01.33688 16 52 13.712 -15 11 52.60 20.5 w F51 – Pan-STARRS 1, Haleakala MPS 471727
